This is the latest recevied weather packets stored in our database for station/object IU5GBO-13. If no packets are shown the sender has not sent any weather packets the latest 10 day(s).
| Time | Temp. | Humidity | Pressure | Rain* | Wind** | Luminosity | Snow |
|---|---|---|---|---|---|---|---|
| 1788556420 | 24.44° C | 58% | 1019.5 hPa | - | - | - | - |
| 1788555819 | 25° C | 58% | 1019.6 hPa | - | - | - | - |
| 1788555219 | 25° C | 58% | 1019.7 hPa | - | - | - | - |
| 1788554620 | 25° C | 57% | 1019.6 hPa | - | - | - | - |
| 1788554019 | 25° C | 57% | 1019.7 hPa | - | - | - | - |
| 1788553419 | 25° C | 55% | 1019.8 hPa | - | - | - | - |
| 1788552219 | 26.11° C | 61% | 1019.6 hPa | - | - | - | - |
| 1788551619 | 25.56° C | 59% | 1019.6 hPa | - | - | - | - |
| 1788551019 | 26.11° C | 62% | 1019.6 hPa | - | - | - | - |
| 1788550419 | 26.67° C | 67% | 1019.5 hPa | - | - | - | - |
| 1788549820 | 26.67° C | 68% | 1019.5 hPa | - | - | - | - |
| 1788549219 | 26.67° C | 68% | 1019.4 hPa | - | - | - | - |
| 1788548619 | 26.67° C | 68% | 1019.3 hPa | - | - | - | - |
| 1788548019 | 26.67° C | 67% | 1019.3 hPa | - | - | - | - |
| 1788547418 | 27.22° C | 67% | 1019.2 hPa | - | - | - | - |
| 1788546819 | 27.22° C | 66% | 1019.2 hPa | - | - | - | - |
| 1788546218 | 27.22° C | 66% | 1018.9 hPa | - | - | - | - |
| 1788545619 | 27.22° C | 65% | 1018.8 hPa | - | - | - | - |
| 1788545018 | 27.78° C | 64% | 1018.7 hPa | - | - | - | - |
| 1788544419 | 27.78° C | 63% | 1018.5 hPa | - | - | - | - |
| 1788543819 | 28.33° C | 62% | 1018.4 hPa | - | - | - | - |
| 1788543219 | 28.89° C | 60% | 1018.4 hPa | - | - | - | - |
| 1788542619 | 28.89° C | 59% | 1018.4 hPa | - | - | - | - |
| 1788542019 | 28.89° C | 59% | 1018.4 hPa | - | - | - | - |
| 1788541419 | 29.44° C | 59% | 1018.6 hPa | - | - | - | - |
* Rain since midnight (hover to see other rain measurements)
** Current wind speed in m/s (hover to see current wind gust speed)